User: anonymous
Location: Unspecified
(0.0000°N, 0.0000°E)
Time: 11:58:42
(UTC+00:00)
Language:

Tiros 2 - Orbit

View from above orbital plane
View from above orbital plane
View from above satellite
View from above satellite

Ground track
Ground track

The orbit data is extracted from the following two-line orbital elements,

1 00063U 60016A   14109.16941030  .00329611  52246-4  92118-3 0  3523
2 00063 048.5005 082.0235 0002493 162.6336 197.4711 15.93048128911695
Epoch (UTC): 19 April 2014 04:03:57
Eccentricity: 0.0002493
inclination: 48.5005°
perigee height: 292 km
apogee height: 295 km
right ascension of ascending node: 82.0235°
argument of perigee: 162.6336°
revolutions per day: 15.93048128
mean anomaly at epoch: 197.4711°
orbit number at epoch: 91169

The dashed part of the orbit path shows where the satellite is in the earth's shadow,  

DLR